Location: Beeston
(52.7000°N, 0.8167°E)
Time: 19:56:27
(UTC+00:00)

Okean 1 - Pass Details

Date: 15 May 2026
Orbit: 458 x 474 km, 82.5° (Epoch: 8 June)

Event Time Altitude Azimuth Distance (km) Brightness Sun altitude
Exits shadow 21:26:02 18° 154° (SSE) 1,224 4.5 -11.5°
Maximum altitude 21:28:16 38° 94° (E) 736 3.7 -11.7°
Drops below altitude 10° 21:31:39 10° 25° (NNE) 1,656 6.2 -12.0°
Sets 21:33:50 0° 17° (NNE) 2,542 7.3 -12.2°
